CW5763 Weather Reports


Display with metric or nautical units.
time (UTC)temp
F
wind
direction
speed
MPH
gust
MPH
rain 1hr
in
rain 24hr
in
rain mn
in
humidity
%
barometer
mb
20260505034005 54 136 0.0 1.0 0.00 0.00 0.00 93 1012.6
20260505033005 54 136 0.0 0.0 0.00 0.00 0.00 93 1012.8
20260505032005 54 136 0.0 0.0 0.00 0.00 0.00 93 1012.8
20260505031005 54 136 0.0 0.0 0.00 0.00 0.00 93 1012.9
20260505030005 54 136 0.0 0.0 0.00 0.00 0.00 93 1012.9
20260505025005 54 136 0.0 0.0 0.00 0.00 0.00 93 1013.0
20260505023005 54 136 0.0 1.0 0.00 0.00 0.00 93 1012.9
20260505022006 54 136 0.0 0.0 0.00 0.00 0.00 93 1013.0
20260505021005 54 136 0.0 0.0 0.00 0.00 0.00 93 1012.9
20260505020005 54 136 0.0 0.0 0.00 0.00 0.00 93 1013.0
20260505015007 54 136 0.0 2.0 0.00 0.00 0.00 93 1013.1
20260505014005 54 136 1.0 2.0 0.00 0.00 0.00 93 1013.2
20260505012005 54 136 0.0 0.0 0.00 0.00 0.00 92 1013.5
20260505010005 54 136 0.0 1.0 0.00 0.00 0.00 92 1013.5
20260505005005 54 136 0.0 2.0 0.00 0.00 0.00 92 1013.6
20260505004006 54 136 1.0 7.0 0.00 0.00 0.00 92 1013.6
20260505003005 54 135 3.0 7.0 0.00 0.00 0.00 92 1013.7
20260505002005 55 135 2.0 7.0 0.00 0.00 0.00 92 1013.6
20260505001007 55 137 3.0 7.0 0.00 0.00 0.00 91 1013.7
20260504235007 55 136 1.0 3.0 0.00 0.00 0.00 91 1013.7
20260504234005 55 136 2.0 5.0 0.00 0.00 0.00 91 1013.9
20260504233005 55 136 5.0 7.0 0.00 0.00 0.00 90 1013.8
20260504232007 55 136 0.0 0.0 0.00 0.00 0.00 89 1013.7
20260504230005 55 136 0.0 0.0 0.00 0.00 0.00 89 1013.8
20260504225005 55 136 0.0 2.0 0.00 0.00 0.00 89 1013.8
20260504224005 55 136 1.0 2.0 0.00 0.00 0.00 88 1013.9
20260504223006 55 136 0.0 1.0 0.00 0.00 0.00 88 1013.9
20260504222005 55 136 0.0 2.0 0.00 0.00 0.00 88 1013.9
20260504214005 56 136 0.0 3.0 0.00 0.00 0.00 86 1014.0
20260504213005 56 136 1.0 5.0 0.00 0.00 0.00 87 1014.1
20260504212005 56 135 3.0 5.0 0.00 0.00 0.00 87 1014.1
20260504211004 56 135 0.0 1.0 0.00 0.00 0.00 85 1014.0
20260504210005 57 135 0.0 1.0 0.00 0.00 0.00 86 1014.1
20260504205005 57 135 0.0 1.0 0.00 0.00 0.00 86 1014.1
20260504204005 57 135 0.0 0.0 0.00 0.00 0.00 86 1014.1
20260504201005 57 135 0.0 0.0 0.00 0.00 0.00 84 1013.9
20260504195004 58 135 0.0 0.0 0.00 0.00 0.00 82 1013.8
20260504193006 58 135 0.0 2.0 0.00 0.00 0.00 80 1013.7
20260504192005 59 135 0.0 0.0 0.00 0.00 0.00 80 1013.6
20260504190005 59 135 0.0 1.0 0.00 0.00 0.00 79 1013.4
20260504185005 60 135 0.0 2.0 0.00 0.00 0.00 78 1013.4
20260504184004 60 135 1.0 3.0 0.00 0.00 0.00 78 1013.4
20260504183004 60 135 2.0 5.0 0.00 0.00 0.00 77 1013.4
20260504182004 61 135 1.0 5.0 0.00 0.00 0.00 75 1013.3
20260504181007 61 132 4.0 7.0 0.00 0.00 0.00 75 1013.3
20260504180005 62 133 3.0 8.0 0.00 0.00 0.00 74 1013.3
20260504175004 62 134 3.0 7.0 0.00 0.00 0.00 74 1013.3
20260504174004 62 130 3.0 5.0 0.00 0.00 0.00 74 1013.3
20260504173004 62 140 2.0 7.0 0.00 0.00 0.00 74 1013.4
20260504172004 62 140 3.0 7.0 0.00 0.00 0.00 75 1013.4
20260504171004 63 138 3.0 8.0 0.00 0.00 0.00 72 1013.3
20260504151004 67 134 9.0 14.0 0.00 0.00 0.00 63 1013.2
20260504141004 69 127 5.0 12.0 0.00 0.00 0.00 66 1013.5
20260504082006 56 331 0.0 1.0 0.00 0.00 0.00 85 1013.8
20260504081006 55 331 0.0 1.0 0.00 0.00 0.00 85 1013.8
20260504050005 52 301 2.0 7.0 0.00 0.00 0.00 92 1012.3
20260504045005 52 345 1.0 5.0 0.00 0.00 0.00 92 1012.4
20260504044005 52 319 1.0 3.0 0.00 0.00 0.00 92 1012.3
20260504043005 52 298 1.0 3.0 0.00 0.00 0.00 92 1012.3
20260504042005 52 281 1.0 3.0 0.00 0.00 0.00 92 1012.4
20260504041005 52 272 1.0 3.0 0.00 0.00 0.00 93 1012.3
20260504035005 52 283 1.0 3.0 0.00 0.00 0.00 92 1012.3